www.pogodaiklimat.ru

Погода и климат >> Архив погоды >> Япония >> Маебаши


ПОГОДА в Маебаши

  • Прогноз погоды в Маебаши
  • Монитор погоды в Маебаши

АРХИВ ПОГОДЫ в Маебаши

Время (UTC), дата Ветер
(напр.,м/с)
 
Видим.   Явления Облачность Т
(С)
Тd
(С)
f
(%)
Тe
(С)
Тes
(С)
Комфортность P
(гПа)
Po
(гПа)
Тmin
(С)
Tmax
(С)
R
(мм)
R24
(мм)
S
(см)
01 12.09 СВ 4 20 км н/о +27.7 +13.3 41 +29 +29 жарко 1013.4 1000.6
02 12.09 С 4 20 км н/о +28.8 +13.9 40 +31 +31 жарко 1012.9 1000.1
03 12.09 С 4 20 км н/о +29.2 +12.2 35 +30 +30 жарко 1012.8 1000.0
04 12.09 С 5 20 км н/о +29.3 +12.3 35 +30 +30 жарко 1012.2 999.4
05 12.09 С 4 20 км н/о +29.6 +13.4 37 +31 +31 жарко 1011.4 998.7
06 12.09 С 4 20 км н/о +28.7 +13.4 39 +30 +30 жарко 1011.7 998.9
07 12.09 С 7 20 км н/о +28.5 +12.8 38 +30 +30 жарко 1012.0 999.2
08 12.09 СВ 4 20 км н/о +27.0 +15.4 49 +30 +30 душно 1012.7 999.8
09 12.09 В 3 20 км н/о +25.8 +18.2 63 +30 +30 душно 1013.6 1000.7
10 12.09 В 3 20 км н/о +24.7 +17.9 66 +29 +29 душно 1014.8 1001.8
11 12.09 В 4 20 км н/о +24.1 +17.1 65 +28 +28 душно 1015.4 1002.4
12 12.09 В 4 20 км н/о +23.6 +16.4 64 +27 +27 жарко 1016.0 1002.9 +30.1
13 12.09 В 3 20 км в посл. час дождь н/о +23.2 +15.8 63 +28 +28 душно 1016.1 1003.0
15 12.09 СВ 2 20 км {дождь} н/о +22.5 +14.9 62 +26 +26 жарко 1016.3 1003.2
16 12.09 С 2 20 км н/о +22.3 +14.9 63 +26 +26 жарко 1015.9 1002.8
18 12.09 С 2 20 км {дождь} н/о +21.2 +16.2 73 +25 +25 комфорт 1016.0 1002.8 0.0
19 12.09 СЗ 2 20 км н/о +21.1 +16.3 74 +24 +24 комфорт 1015.9 1002.7
20 12.09 С 2 20 км н/о +21.0 +16.6 76 +26 +26 душно 1015.9 1002.7
21 12.09 С 2 20 км н/о +20.9 +16.5 76 +25 +25 комфорт 1016.7 1003.5
22 12.09 С 2 20 км н/о +20.9 +16.7 77 +25 +25 комфорт 1017.0 1003.8
23 12.09 С 2 20 км н/о +21.3 +16.9 76 +25 +25 комфорт 1017.4 1004.2
00 13.09 СВ 1 20 км н/о +21.9 +16.4 71 +26 +26 душно 1018.0 1004.8 +20.8 0.0
01 13.09 ЮВ 3 20 км н/о +21.7 +16.2 71 +25 +25 комфорт 1018.0 1004.8
02 13.09 Ю 2 20 км н/о +21.9 +15.7 68 +26 +26 душно 1017.8 1004.6
03 13.09 ЮВ 1 7000 м слаб. дождь н/о +20.5 +16.5 78 +25 +25 комфорт 1018.0 1004.7
04 13.09 СЗ 1 20 км в посл. час дождь н/о +21.7 +16.7 73 +26 +26 душно 1017.2 1004.0
05 13.09 Ю 2 20 км н/о +21.1 +16.3 74 +24 +24 комфорт 1016.9 1003.7
06 13.09 СЗ 2 20 км {дождь} н/о +21.3 +16.3 73 +25 +25 комфорт 1016.7 1003.5 0.0
08 13.09 ЮЗ 1 20 км н/о +21.6 +16.8 74 +26 +26 душно 1017.3 1004.1
09 13.09 ЮВ 2 20 км н/о +21.5 +16.9 75 +25 +25 комфорт 1017.2 1004.0
10 13.09 З 1 20 км н/о +21.3 +17.1 77 +25 +25 комфорт 1017.7 1004.5
11 13.09 В 1 20 км н/о +21.3 +16.5 74 +25 +25 комфорт 1018.3 1005.1
12 13.09 Ю 1 20 км н/о +21.1 +16.9 77 +25 +25 комфорт 1018.7 1005.5 +22.1 0.0
13 13.09 Ю 1 20 км в посл. час дождь н/о +21.0 +17.0 78 +26 +26 душно 1018.8 1005.6
14 13.09 Ю 1 20 км н/о +20.8 +16.6 77 +25 +25 комфорт 1018.3 1005.1
15 13.09 Ю 1 20 км {дождь} н/о +20.4 +16.7 79 +25 +25 комфорт 1017.9 1004.6
16 13.09 СЗ 1 20 км н/о +20.2 +17.2 83 +25 +25 комфорт 1017.6 1004.3
17 13.09 С 2 20 км н/о +19.8 +16.8 83 +23 +23 комфорт 1017.1 1003.8
18 13.09 З 2 20 км {дождь} н/о +19.0 +16.4 85 +21 +21 комфорт 1016.7 1003.4 0.0
19 13.09 СЗ 1 20 км н/о +18.1 +14.8 81 +19 +19 1017.0 1003.6
21 13.09 С 1 20 км н/о +18.0 +15.8 87 +19 +19 1017.5 1004.1
00 14.09 З 2 20 км н/о +21.8 +14.9 65 +25 +25 комфорт 1016.5 1003.3 +17.3 0.0
01 14.09 ЮЗ 1 20 км н/о +22.7 +14.8 61 +26 +26 жарко 1015.9 1002.8
02 14.09 В 2 20 км н/о +24.3 +15.5 58 +27 +27 жарко 1015.0 1002.0
03 14.09 В 2 20 км н/о +25.1 +14.9 53 +28 +28 жарко 1014.7 1001.7
04 14.09 ЮВ 2 20 км н/о +25.8 +14.9 51 +29 +29 душно 1013.9 1001.0
05 14.09 ЮВ 2 20 км н/о +26.9 +17.4 56 +31 +31 душно 1013.5 1000.6
06 14.09 ЮВ 3 20 км н/о +25.0 +18.2 66 +29 +29 душно 1013.4 1000.4
07 14.09 В 3 20 км н/о +24.5 +18.9 71 +29 +29 душно 1013.3 1000.3
08 14.09 ЮВ 2 20 км н/о +23.7 +19.0 75 +28 +28 душно 1013.6 1000.6
09 14.09 В 2 20 км н/о +23.5 +19.0 76 +28 +28 душно 1013.7 1000.7
10 14.09 ЮВ 1 20 км н/о +23.4 +18.7 75 +30 +30 очень
душно
1014.2 1001.1
11 14.09 Ю 1 20 км н/о +23.7 +18.6 73 +28 +28 душно 1014.5 1001.5
12 14.09 Ю 1 20 км н/о +23.1 +19.3 79 +29 +29 очень
душно
1014.6 1001.5 +27.3
13 14.09 СЗ 2 20 км н/о +22.6 +19.4 82 +29 +29 очень
душно
1014.3 1001.2
14 14.09 С 1 20 км н/о +22.3 +19.3 83 +28 +28 душно 1013.9 1000.8
15 14.09 С 2 20 км н/о +22.2 +19.2 83 +28 +28 душно 1013.5 1000.4
16 14.09 СЗ 2 20 км н/о +22.1 +18.9 82 +27 +27 душно 1013.2 1000.1
17 14.09 СЗ 2 20 км н/о +21.9 +19.1 84 +27 +27 душно 1012.8 999.7
18 14.09 СЗ 1 20 км н/о +22.0 +19.0 83 +27 +27 душно 1012.8 999.7
19 14.09 З 1 19 км н/о +21.9 +19.1 84 +27 +27 душно 1012.9 999.8
20 14.09 З 1 20 км н/о +21.2 +19.3 89 +26 +26 душно 1012.8 999.6
21 14.09 С 2 16 км н/о +21.3 +19.2 88 +26 +26 душно 1012.4 999.3
22 14.09 СЗ 2 20 км н/о +22.4 +19.0 81 +28 +28 душно 1012.5 999.4
23 14.09 СЗ 2 20 км н/о +23.9 +18.8 73 +29 +29 душно 1012.1 999.1
00 15.09 З 1 20 км н/о +25.5 +18.7 66 +30 +30 душно 1011.8 998.9 +20.9
01 15.09 З 2 20 км н/о +26.9 +18.0 58 +31 +31 душно 1011.2 998.3
02 15.09 В 2 20 км н/о +27.7 +18.1 56 +32 +32 очень
душно
1010.4 997.6
03 15.09 В 2 20 км н/о +28.9 +19.0 55 +34 +34 очень
душно
1009.6 996.9
04 15.09 ЮЗ 2 20 км н/о +29.7 +19.1 53 +35 +35 очень
душно
1008.7 996.0
05 15.09 ЮВ 3 20 км н/о +28.9 +18.7 54 +34 +34 очень
душно
1008.2 995.5
06 15.09 ЮВ 2 20 км н/о +30.2 +19.3 52 +36 +36 очень
душно
1007.7 995.0
07 15.09 Ю 2 20 км н/о +29.9 +18.4 50 +35 +35 очень
душно
1007.5 994.8
08 15.09 ЮВ 3 20 км н/о +29.3 +18.7 53 +34 +34 очень
душно
1007.5 994.8
09 15.09 ЮВ 2 20 км н/о +28.2 +18.3 55 +33 +33 очень
душно
1008.0 995.2
10 15.09 Ю 1 20 км н/о +28.0 +19.0 58 +33 +33 очень
душно
1008.3 995.5
11 15.09 СЗ 2 20 км н/о +26.5 +20.1 68 +33 +33 очень
душно
1008.9 996.1
12 15.09 ЮВ 2 20 км н/о +26.1 +20.0 69 +32 +32 очень
душно
1009.0 996.1 +30.7
13 15.09 ЮВ 2 20 км н/о +25.1 +20.2 74 +31 +31 очень
душно
1008.5 995.6
14 15.09 С 2 20 км н/о +24.5 +20.2 77 +30 +30 очень
душно
1008.1 995.2
15 15.09 С 2 20 км н/о +23.7 +20.1 80 +29 +29 душно 1007.7 994.7
16 15.09 С 2 20 км н/о +23.5 +19.9 80 +29 +29 душно 1007.2 994.2
17 15.09 СЗ 3 20 км н/о +23.8 +20.0 79 +29 +29 душно 1006.5 993.6
18 15.09 СЗ 2 20 км н/о +23.8 +19.7 78 +29 +29 душно 1006.0 993.1
19 15.09 СЗ 1 20 км н/о +23.8 +19.7 78 +29 +29 душно 1004.9 992.0
21 15.09 СВ 2 20 км н/о +23.7 +20.1 80 +29 +29 душно 1005.2 992.3
22 15.09 З 2 8000 м слаб. дождь н/о +23.5 +20.5 83 +29 +29 душно 1005.3 992.4
23 15.09 СЗ 1 3000 м слаб. дождь н/о +22.1 +20.7 92 +28 +28 душно 1005.4 992.4
00 16.09 З 2 18 км в посл. час дождь н/о +22.3 +21.3 94 +29 +29 очень
душно
1004.7 991.7 +21.7 1
01 16.09 З 2 20 км в посл. час дождь н/о +23.8 +21.3 86 +30 +30 очень
душно
1003.9 991.0
02 16.09 ЮЗ 2 20 км н/о +25.2 +21.5 80 +32 +32 очень
душно
1002.8 990.0
03 16.09 Ю 2 20 км {дождь} н/о +26.3 +21.7 76 +34 +34 очень
душно
1002.2 989.4
04 16.09 З 2 20 км н/о +27.2 +21.7 72 +35 +35 очень
душно
1001.1 988.4
05 16.09 ЮЗ 2 20 км н/о +27.7 +22.0 71 +36 +36 очень
душно
1000.6 987.9
06 16.09 ЮЗ 1 20 км {дождь} н/о +28.4 +22.2 69 +37 +37 очень
душно
1000.6 987.9 0.0
07 16.09 ЮЗ 2 20 км н/о +28.5 +22.3 69 +37 +37 очень
душно
1000.3 987.7
08 16.09 ЮЗ 3 20 км н/о +27.9 +22.2 71 +36 +36 очень
душно
1000.8 988.1
09 16.09 З 2 20 км н/о +26.4 +21.8 76 +34 +34 очень
душно
1001.4 988.6
10 16.09 СЗ 4 20 км н/о +27.2 +18.8 60 +32 +32 очень
душно
1002.2 989.5
11 16.09 СЗ 3 20 км н/о +26.2 +18.6 63 +31 +31 очень
душно
1002.6 989.8
12 16.09 СЗ 4 20 км н/о +25.9 +18.3 63 +31 +31 очень
душно
1003.1 990.3 +29.0 0.0
13 16.09 З 2 20 км н/о +26.3 +17.9 60 +31 +31 душно 1003.5 990.7
14 16.09 З 2 20 км н/о +25.0 +18.2 66 +29 +29 душно 1004.4 991.5
15 16.09 СЗ 2 20 км н/о +24.9 +18.4 67 +29 +29 душно 1004.6 991.7
16 16.09 С 2 20 км н/о +24.8 +18.5 68 +29 +29 душно 1005.5 992.6
17 16.09 С 1 20 км н/о +23.6 +19.1 76 +28 +28 душно 1005.8 992.9
18 16.09 СЗ 2 20 км н/о +23.4 +18.9 76 +30 +30 очень
душно
1006.4 993.4
19 16.09 СЗ 1 20 км н/о +23.3 +19.1 77 +30 +30 очень
душно
1007.0 994.0
20 16.09 СЗ 2 20 км н/о +23.4 +18.7 75 +30 +30 очень
душно
1007.4 994.4
21 16.09 С 1 20 км н/о +22.3 +19.1 82 +28 +28 душно 1008.2 995.2
22 16.09 З 2 20 км н/о +24.4 +18.8 71 +29 +29 душно 1008.2 995.3
23 16.09 СЗ 2 20 км н/о +26.1 +18.8 64 +31 +31 очень
душно
1008.9 996.0
00 17.09 З 2 20 км н/о +28.0 +19.3 59 +34 +34 очень
душно
1009.2 996.4 +22.2
01 17.09 З 2 20 км н/о +29.9 +19.0 52 +35 +35 очень
душно
1009.0 996.3
02 17.09 ЮЗ 1 20 км н/о +30.1 +18.2 49 +35 +35 очень
душно
1008.7 996.0
03 17.09 ЮВ 3 20 км н/о +30.3 +19.7 53 +36 +36 очень
душно
1008.3 995.6
04 17.09 СВ 2 20 км н/о +32.1 +21.0 52 +40 +40 очень
душно
1007.9 995.3
05 17.09 ЮВ 4 20 км н/о +31.6 +20.6 52 +39 +39 очень
душно
1007.8 995.2
06 17.09 ЮВ 4 20 км н/о +30.8 +20.7 55 +38 +38 очень
душно
1007.9 995.3
07 17.09 ЮВ 3 20 км н/о +29.9 +20.2 56 +36 +36 очень
душно
1008.4 995.7
08 17.09 ЮВ 4 20 км слаб. дождь н/о +28.3 +21.3 66 +36 +36 очень
душно
1009.4 996.6
09 17.09 ЮВ 4 20 км в посл. час дождь н/о +27.2 +20.3 66 +34 +34 очень
душно
1010.2 997.4
10 17.09 ЮВ 5 20 км в посл. час дождь н/о +26.2 +19.4 66 +32 +32 очень
душно
1011.3 998.4
11 17.09 ЮВ 3 20 км в посл. час дождь н/о +25.4 +18.8 67 +30 +30 душно 1012.1 999.2
12 17.09 ЮВ 3 20 км {дождь} н/о +24.5 +18.2 68 +29 +29 душно 1012.3 999.3 +32.2 0.0
13 17.09 ЮВ 3 20 км н/о +24.2 +18.6 71 +29 +29 душно 1013.0 1000.0
14 17.09 ЮВ 2 20 км в посл. час дождь н/о +24.1 +19.0 73 +29 +29 душно 1013.0 1000.0
15 17.09 ЮВ 2 20 км {дождь} н/о +23.7 +19.2 76 +29 +29 душно 1013.0 1000.0
16 17.09 ЮВ 2 20 км н/о +23.3 +19.1 77 +30 +30 очень
душно
1012.9 999.9
17 17.09 С 1 20 км в посл. час дождь н/о +23.0 +19.2 79 +29 +29 очень
душно
1012.4 999.3
18 17.09 СЗ 1 20 км {дождь} н/о +22.5 +19.5 83 +29 +29 очень
душно
1012.3 999.2 0.0
20 17.09 ЮВ 2 7000 м слаб. дождь н/о +22.0 +19.8 87 +28 +28 душно 1012.6 999.5
21 17.09 СЗ 2 20 км в посл. час дождь н/о +21.5 +19.6 89 +27 +27 душно 1012.9 999.8
23 17.09 С 1 20 км н/о +22.3 +19.5 84 +28 +28 душно 1012.5 999.4
00 18.09 СВ 1 20 км {дождь} н/о +23.3 +18.8 76 +30 +30 очень
душно
1012.3 999.3 +21.0 0.0
01 18.09 С 1 20 км н/о +24.9 +18.8 69 +30 +30 душно 1011.9 998.9
02 18.09 В 1 20 км н/о +24.6 +17.8 66 +29 +29 душно 1011.7 998.7
03 18.09 ЮВ 2 20 км н/о +25.6 +17.3 60 +30 +30 душно 1010.8 997.9
04 18.09 ЮВ 1 20 км н/о +25.2 +17.4 62 +29 +29 душно 1009.6 996.7
05 18.09 ЮЗ 2 20 км н/о +25.0 +16.7 60 +29 +29 душно 1009.7 996.8
06 18.09 Ю 3 20 км в посл. час дождь н/о +24.0 +17.3 66 +28 +28 душно 1009.7 996.7 0.0
07 18.09 ЮВ 2 14 км слаб. дождь н/о +21.7 +19.1 85 +27 +27 душно 1011.0 997.9
09 18.09 Ю 2 20 км в посл. час дождь н/о +21.1 +18.5 85 +25 +25 комфорт 1011.5 998.4
10 18.09 ЮЗ 1 16 км в посл. час дождь н/о +20.8 +18.6 87 +26 +26 душно 1011.9 998.7
11 18.09 З 1 14 км н/о +20.8 +18.2 85 +26 +26 душно 1012.1 998.9
12 18.09 СЗ 2 14 км {дождь} н/о +20.3 +18.4 89 +25 +25 комфорт 1011.7 998.5 +25.9 0.5
13 18.09 СЗ 2 20 км н/о +19.9 +17.5 86 +23 +23 комфорт 1011.8 998.6
14 18.09 С 2 20 км н/о +19.8 +16.1 79 +23 +23 комфорт 1011.9 998.7
15 18.09 З 2 20 км н/о +19.7 +15.0 74 +22 +22 комфорт 1011.5 998.3
16 18.09 СЗ 2 20 км н/о +19.6 +13.8 69 +22 +22 комфорт 1011.6 998.4
17 18.09 З 2 20 км н/о +19.9 +12.9 64 +22 +22 комфорт 1011.6 998.4
18 18.09 СЗ 3 20 км н/о +19.8 +12.3 62 +22 +22 комфорт 1011.7 998.5
19 18.09 З 2 20 км в посл. час дождь н/о +19.9 +11.9 60 +22 +22 комфорт 1012.3 999.1
20 18.09 СЗ 3 20 км в посл. час дождь н/о +19.2 +12.7 66 +21 +21 комфорт 1012.6 999.3
21 18.09 СЗ 3 20 км {дождь} н/о +19.0 +13.4 70 +20 +20 1013.6 1000.3
22 18.09 СЗ 3 20 км н/о +19.6 +13.5 68 +21 +21 комфорт 1014.6 1001.3
23 18.09 СЗ 5 20 км н/о +21.9 +12.5 55 +24 +24 комфорт 1014.4 1001.3
00 19.09 С 4 20 км {дождь} н/о +22.7 +12.4 52 +25 +25 комфорт 1014.8 1001.7 +18.8 0.0
01 19.09 С 3 20 км н/о +24.2 +11.5 45 +26 +26 жарко 1014.3 1001.3

 

Местоположение метеостанции Маебаши (Япония): широта 36.40 долгота 139.06 высота над уровнем моря 113 м.

В архиве по умолчанию представлена погода в Маебаши за последнюю неделю. Архивные данные за месяц целиком и за предыдущие месяцы, начиная с января 2011 года, Вы можете получить, выбрав интересующий диапазон дат из раскрывающегося списка и нажав кнопку "Ввод!".


*Определитесь, кто Вы:
робот инопланетянин человек

Внимание! Время в таблицах - всемирное. Для получения местного времени необходимо прибавить поправку, которая равна 9 ч.

Смотрите также архив погоды в соседних городах и на ближайших метеорологических станциях:

Погода в Кумугае (Япония) (40 км)
Погода в Каруидзаве (Япония) (46 км)
Погода в Чичибу (Япония) (47 км)
Погода в Никко (Япония) (54 км)
Погода в Уцуномии (Япония) (73 км)
Погода в Нагано (Япония) (83 км)
Погода в Кофу (Япония) (93 км)
Погода в Суве (Япония) (94 км)
Погода в Мацумото (Япония) (100 км)
Погода в Токио (Япония) (102 км)

Пояснения к столбцам:

Ветер - указаны скорость ветра в м/с - средняя за 10 мин, порывы в срок и между сроками (в фигурных скобках) и направление, откуда дует ветер: С - северный, СВ - северо-восточный, В - восточный, ЮВ - юго-восточный, Ю - южный, ЮЗ - юго-западный, З - западный, СЗ - северо-западный.
Видимость - горизонтальная дальность видимости в метрах или километрах. При видимости от 1 до 10 км при отсутствии осадков обычно наблюдается дымка, при ухудшении видимости до 1 км и менее - туман. В сухую погоду видимость может ухудшаться дымом, пылью или мглою.
Явления - указаны атмосферные явления, наблюдавшиеся в срок или в последний час перед сроком; фигурными скобками обозначены явления, наблюдавшиеся между сроками (за 1-3 часа до срока); квадратными скобками обозначены град или гололедные отложения с указанием их диаметра в мм.
Облачность - указаны через наклонную черту общая и нижняя облачность в баллах и высота нижней границы облаков в метрах; квадратными скобками обозначены формы облаков: Ci - перистые, Cs - перисто-слоистые, Cc - перисто-кучевые, Ac - высококучевые, As - высокослоистые, Sc - слоисто-кучевые, Ns - слоисто-дождевые, Cu - кучевые, Cb - кучево-дождевые. Подробнее классификацию облаков см. в Атласе облаков (PDF).
T - Температура воздуха - температура, измеренная на высоте 2 м над землей.
Td - Температура точки росы - температура, при понижении до которой содержащийся в воздухе водяной пар достигнет насыщения.
f - Относительная влажность воздуха - влажноcть воздуха, измеренная на высоте 2 м над землей.
Te - Эффективная температура - температура, которую ощущает одетый по сезону человек в тени. Характеристика душности погоды. При расчете учитывается влияние влажности воздуха и скорости ветра на теплоощущения человека.
Tes - Эффективная температура на солнце - температура, которую ощущает человек, с поправкой на солнечный нагрев. Характеристика знойности погоды. Зависит от высоты солнца над горизонтом, облачности и скорости ветра. Ночью, в пасмурную погоду, а также при ветре 12 м/с и более поправка равна нулю.
P - Атмосферное давление - приведенное к уровню моря атмосферное давление.
Po - Атмосферное давление - измеренное на уровне метеостанции атмосферное давление.
Tmin - Минимальная температура - минимум температуры воздуха на высоте 2 м над землей.
Tmax - Максимальная температура - максимум температуры воздуха на высоте 2 м над землей.
R - Количество осадков - Количество выпавших осадков за период времени, мм. При наведении курсора мыши на число - период времени, за который выпало указанное количество осадков.
R24 - Количество осадков - Количество выпавших осадков за 24 часа, мм.
S - Снежный покров - Высота снежного покрова, см. При наведении курсора мыши на число - состояние снежного покрова и степень покрытия местности в баллах.